Location: Newport
(44.6370°N, 124.0520°W)
Time: 15:25:07
(UTC-07:00)

Vanguard 1 - Pass Details

Date: 29 July 2018
Orbit: 650 x 3833 km, 34.2° (Epoch: 16 October)

Event Time Altitude Azimuth Distance (km) Brightness Sun altitude
Rises 21:14:42 0° 238° (WSW) 6,174 14.5 -5.4°
Reaches altitude 10° 21:19:52 10° 231° (SW) 4,603 13.7 -6.1°
Maximum altitude 21:29:41 34° 173° (S) 2,102 11.4 -7.6°
Drops below altitude 10° 21:35:39 10° 110° (ESE) 2,763 11.8 -8.4°
Enters shadow 21:36:00 - 108° (ESE) 2,861 11.8 -8.5°
